Location: Newark
(37.6833°N, 14.0333°E)
Time: 00:49:14
(UTC+00:00)

LightSail 2 - Visible Passes

Search period start: 13 November 2019 00:00
Search period end: 23 November 2019 00:00
Orbit: 701 x 726 km, 24.0° (Epoch: 11 November)

Date Brightness Start Highest point End Pass type
(mag) Time Alt. Az. Time Alt. Az. Time Alt. Az.
13 Nov 7.2 03:23:17 17° S 03:23:40 17° S 03:26:55 10° SE visible
13 Nov 7.4 05:05:17 10° SW 05:08:28 16° S 05:11:39 10° SSE visible
14 Nov 7.2 04:08:04 12° SW 04:10:47 17° S 04:14:08 10° SE visible
15 Nov 7.2 03:13:49 17° S 03:13:49 17° S 03:16:29 10° SE visible
15 Nov 7.4 04:55:21 10° SW 04:57:53 14° SSW 05:00:25 10° SSE visible
16 Nov 7.2 03:58:32 13° SSW 04:00:12 15° S 04:03:10 10° SSE visible
17 Nov 7.5 03:04:16 14° SSE 03:04:16 14° SSE 03:05:43 10° SSE visible
17 Nov 7.6 04:46:59 10° SSW 04:47:13 10° SSW 04:47:28 10° SSW visible
18 Nov 7.4 03:48:58 12° SSW 03:49:32 12° SSW 03:51:35 10° S visible
